LRTR Weather Reports


time (UTC)temp
F
wind
direction
speed
knots
gust
knots
rain 1hr
in
rain 24hr
in
rain mn
in
humidity
%
barometer
mb
20260507074805 63 240 6.1 0.0 0.00 0.00 0.00 94 1015.0
20260507073305 63 240 6.1 0.0 0.00 0.00 0.00 94 1015.0
20260507071805 63 240 6.1 0.0 0.00 0.00 0.00 94 1015.0
20260507070304 63 240 6.1 0.0 0.00 0.00 0.00 94 1015.0
20260507064805 61 220 6.1 0.0 0.00 0.00 0.00 94 1015.0
20260507063305 61 220 6.1 0.0 0.00 0.00 0.00 94 1015.0
20260507061817 63 230 6.1 0.0 0.00 0.00 0.00 83 1014.0
20260507060305 63 230 6.1 0.0 0.00 0.00 0.00 83 1014.0
20260507054805 63 210 4.3 0.0 0.00 0.00 0.00 73 1014.0
20260507053312 63 210 4.3 0.0 0.00 0.00 0.00 73 1014.0
20260507051805 59 250 4.3 0.0 0.00 0.00 0.00 82 1013.0
20260507050305 59 250 4.3 0.0 0.00 0.00 0.00 82 1013.0
20260507044805 57 200 4.3 0.0 0.00 0.00 0.00 88 1013.0
20260507043305 57 200 4.3 0.0 0.00 0.00 0.00 88 1013.0
20260507041805 59 190 5.2 0.0 0.00 0.00 0.00 77 1013.0
20260507040305 59 190 5.2 0.0 0.00 0.00 0.00 77 1013.0
20260507034805 57 150 4.3 0.0 0.00 0.00 0.00 82 1012.0
20260507033304 57 150 4.3 0.0 0.00 0.00 0.00 82 1012.0
20260507031805 57 110 6.1 0.0 0.00 0.00 0.00 77 1012.0
20260507030305 57 110 6.1 0.0 0.00 0.00 0.00 77 1012.0
20260507024805 57 100 6.1 0.0 0.00 0.00 0.00 77 1012.0
20260507023304 57 100 6.1 0.0 0.00 0.00 0.00 77 1012.0
20260507021805 59 100 6.1 0.0 0.00 0.00 0.00 72 1011.0
20260507020305 59 100 6.1 0.0 0.00 0.00 0.00 72 1011.0
20260507014805 59 110 7.0 0.0 0.00 0.00 0.00 72 1011.0
20260507013304 59 110 7.0 0.0 0.00 0.00 0.00 72 1011.0
20260507011805 57 90 6.1 0.0 0.00 0.00 0.00 77 1011.0
20260507010305 57 90 6.1 0.0 0.00 0.00 0.00 77 1011.0
20260507004804 59 80 7.8 0.0 0.00 0.00 0.00 72 1011.0
20260507003305 59 80 7.8 0.0 0.00 0.00 0.00 72 1011.0
20260507001805 63 200 4.3 0.0 0.00 0.00 0.00 59 1011.0
20260507000306 63 200 4.3 0.0 0.00 0.00 0.00 59 1011.0
20260506234805 59 110 7.8 0.0 0.00 0.00 0.00 72 1011.0
20260506233305 59 110 7.8 0.0 0.00 0.00 0.00 72 1011.0
20260506231805 55 100 7.0 0.0 0.00 0.00 0.00 82 1011.0
20260506230305 55 100 7.0 0.0 0.00 0.00 0.00 82 1011.0
20260506224804 54 80 7.8 0.0 0.00 0.00 0.00 88 1011.0
20260506223305 54 80 7.8 0.0 0.00 0.00 0.00 88 1011.0
20260506221804 54 100 6.1 0.0 0.00 0.00 0.00 82 1011.0
20260506220304 54 100 6.1 0.0 0.00 0.00 0.00 82 1011.0
20260506214821 54 80 6.1 0.0 0.00 0.00 0.00 82 1011.0
20260506213305 54 80 6.1 0.0 0.00 0.00 0.00 82 1011.0
20260506211805 54 80 4.3 0.0 0.00 0.00 0.00 82 1011.0
20260506210304 54 80 4.3 0.0 0.00 0.00 0.00 82 1011.0
20260506204805 54 90 6.1 0.0 0.00 0.00 0.00 88 1011.0
20260506203305 54 90 6.1 0.0 0.00 0.00 0.00 88 1011.0
20260506201805 55 90 5.2 0.0 0.00 0.00 0.00 82 1011.0
20260506200305 55 90 5.2 0.0 0.00 0.00 0.00 82 1011.0
20260506194824 55 50 5.2 0.0 0.00 0.00 0.00 82 1011.0
20260506193328 55 50 5.2 0.0 0.00 0.00 0.00 82 1011.0
20260506191805 57 50 5.2 0.0 0.00 0.00 0.00 82 1011.0
20260506190305 57 50 5.2 0.0 0.00 0.00 0.00 82 1011.0
20260506184810 61 90 5.2 0.0 0.00 0.00 0.00 72 1011.0
20260506183305 61 90 5.2 0.0 0.00 0.00 0.00 72 1011.0
20260506181805 66 100 2.6 0.0 0.00 0.00 0.00 60 1010.0
20260506180305 66 100 2.6 0.0 0.00 0.00 0.00 60 1010.0
20260506174805 73 140 2.6 0.0 0.00 0.00 0.00 38 1010.0
20260506173305 73 140 2.6 0.0 0.00 0.00 0.00 38 1010.0
20260506171805 75 150 4.3 0.0 0.00 0.00 0.00 36 1010.0
20260506170304 75 150 4.3 0.0 0.00 0.00 0.00 36 1010.0
20260506164805 75 160 4.3 0.0 0.00 0.00 0.00 36 1010.0
20260506163305 75 160 4.3 0.0 0.00 0.00 0.00 36 1010.0
20260506161805 77 180 4.3 0.0 0.00 0.00 0.00 32 1011.0
20260506160305 77 180 4.3 0.0 0.00 0.00 0.00 32 1011.0
20260506154805 77 180 5.2 0.0 0.00 0.00 0.00 32 1011.0
20260506153305 77 180 5.2 0.0 0.00 0.00 0.00 32 1011.0
20260506151804 79 210 7.0 0.0 0.00 0.00 0.00 30 1011.0
20260506150311 79 210 7.0 0.0 0.00 0.00 0.00 30 1011.0
20260506144805 77 200 6.1 0.0 0.00 0.00 0.00 32 1011.0
20260506143316 77 200 6.1 0.0 0.00 0.00 0.00 32 1011.0
20260506141805 79 5.2 0.0 0.00 0.00 0.00 30 1011.0
20260506140418 79 5.2 0.0 0.00 0.00 0.00 30 1011.0
20260506134830 79 190 7.0 0.0 0.00 0.00 0.00 30 1012.0
20260506133305 79 190 7.0 0.0 0.00 0.00 0.00 30 1012.0
20260506131805 79 190 7.8 0.0 0.00 0.00 0.00 32 1012.0
20260506130313 79 190 7.8 0.0 0.00 0.00 0.00 32 1012.0
20260506124805 77 170 7.0 0.0 0.00 0.00 0.00 34 1012.0
20260506123305 77 170 7.0 0.0 0.00 0.00 0.00 34 1012.0
20260506121805 75 200 6.1 0.0 0.00 0.00 0.00 36 1013.0
20260506120305 75 200 6.1 0.0 0.00 0.00 0.00 36 1013.0
20260506114804 75 200 7.8 0.0 0.00 0.00 0.00 36 1013.0
20260506113305 75 200 7.8 0.0 0.00 0.00 0.00 36 1013.0
20260506111805 73 170 6.1 0.0 0.00 0.00 0.00 38 1013.0
20260506110305 73 170 6.1 0.0 0.00 0.00 0.00 38 1013.0
20260506104805 75 170 7.0 0.0 0.00 0.00 0.00 36 1013.0
20260506103305 75 170 7.0 0.0 0.00 0.00 0.00 36 1013.0
20260506101805 75 190 7.0 0.0 0.00 0.00 0.00 36 1014.0
20260506100305 75 190 7.0 0.0 0.00 0.00 0.00 36 1014.0
20260506094805 73 180 7.0 0.0 0.00 0.00 0.00 38 1014.0
20260506093305 73 180 7.0 0.0 0.00 0.00 0.00 38 1014.0
20260506091805 72 5.2 0.0 0.00 0.00 0.00 41 1014.0
20260506090305 72 5.2 0.0 0.00 0.00 0.00 41 1014.0
20260506084805 70 140 4.3 0.0 0.00 0.00 0.00 46 1014.0
20260506083305 70 140 4.3 0.0 0.00 0.00 0.00 46 1014.0
20260506081804 68 180 4.3 0.0 0.00 0.00 0.00 49 1014.0
20260506080305 68 180 4.3 0.0 0.00 0.00 0.00 49 1014.0